Ontario, OR

6:17 PM MST on February 10, 2016 (GMT -0700)
Ontario Municipal

Weather History for KONO - May, 2014

Change the Weather History Date:

Monday, May 19, 2014

  Actual Average Record
Temperature  
Mean Temperature 58 °F 60 °F  
Max Temperature 73 °F 76 °F 95 °F (1954)
Min Temperature 43 °F 45 °F 31 °F (1960)
Degree Days  
Heating Degree Days 7 6  
Month to date heating degree days 117 155  
Since 1 July heating degree days 5864 5896  
Cooling Degree Days 0 1  
Month to date cooling degree days 14 14  
Year to date cooling degree days 14 15  
Growing Degree Days 8 (Base 50)    
Moisture  
Dew Point 37 °F    
Average Humidity 53    
Maximum Humidity 83    
Minimum Humidity 22    
Precipitation  
Precipitation 0.00 in 0.04 in 0.89 in (1953)
Month to date precipitation 0.42 0.75  
Year to date precipitation 4.73 4.54  
Sea Level Pressure  
Sea Level Pressure 29.91 in    
Wind  
Wind Speed 6 mph (NW)    
Max Wind Speed 13 mph    
Max Gust Speed 17 mph    
Visibility 10 miles    
Events      
T = Trace of Precipitation, MM = Missing Value Source: NWS Daily Summary

Daily Weather History Graph

Daily Weather History Graph

Search for Another Location

Airport or City:

Trip Planner

Search our weather history database for the weather conditions in past years. The results will help you decide how hot, cold, wet, or windy it might be!

Date:

Astronomy

May. 19, 2014 Rise Set
Actual Time 6:17 AM MDT 9:11 PM MDT
Civil Twilight 5:43 AM MDT 9:45 PM MDT
Nautical Twilight 5:00 AM MDT 10:29 PM MDT
Astronomical Twilight 4:10 AM MDT 11:20 PM MDT
Moon 12:59 AM MDT (5/19) 11:24 AM MDT (5/19)
Length of Visible Light 16h 02m
Length of Day
14h 54m
Waning Gibbous, 70% of the Moon is Illuminated
May 19
Waning Gibbous
May 21
Last Quarter
May 28
New
Jun 5
First Quarter
Jun 12
Full

Hourly Weather History & Observations

Time (MDT) Temp. Dew Point Humidity Pressure Visibility Wind Dir Wind Speed Gust Speed Precip Events Conditions
12:53 AM 50.0 °F 41.0 °F 71% 29.88 in 10.0 mi WNW 10.4 mph - N/A   Clear
1:53 AM 50.0 °F 39.9 °F 68% 29.87 in 10.0 mi WNW 11.5 mph - N/A   Clear
2:53 AM 50.0 °F 39.0 °F 66% 29.88 in 10.0 mi West 9.2 mph - N/A   Partly Cloudy
3:53 AM 50.0 °F 39.0 °F 66% 29.89 in 10.0 mi West 10.4 mph - N/A   Clear
4:53 AM 46.9 °F 37.9 °F 71% 29.92 in 10.0 mi West 3.5 mph - N/A   Scattered Clouds
5:53 AM 44.1 °F 39.0 °F 82% 29.94 in 10.0 mi Calm Calm - N/A   Clear
7:53 AM 48.0 °F 39.9 °F 74% 29.96 in 10.0 mi WSW 4.6 mph - N/A   Scattered Clouds
8:53 AM 53.1 °F 41.0 °F 64% 29.97 in 10.0 mi Variable 3.5 mph - N/A   Partly Cloudy
9:53 AM 57.0 °F 41.0 °F 55% 29.97 in 10.0 mi Variable 3.5 mph - N/A   Clear
10:53 AM 60.1 °F 39.0 °F 46% 29.96 in 10.0 mi Calm Calm - N/A   Clear
12:53 PM 64.9 °F 36.0 °F 34% 29.94 in 10.0 mi Variable 3.5 mph - N/A   Partly Cloudy
1:53 PM 66.0 °F 36.0 °F 33% 29.93 in 10.0 mi SE 5.8 mph - N/A   Scattered Clouds
2:53 PM 70.0 °F 33.1 °F 26% 29.91 in 10.0 mi NW 4.6 mph - N/A   Partly Cloudy
3:53 PM 70.0 °F 35.1 °F 28% 29.89 in 10.0 mi Variable 6.9 mph - N/A   Clear
4:53 PM 71.1 °F 30.9 °F 23% 29.88 in 10.0 mi Variable 3.5 mph - N/A   Clear
5:53 PM 72.0 °F 30.9 °F 22% 29.88 in 10.0 mi Variable 5.8 mph - N/A   Clear
6:53 PM 71.1 °F 33.1 °F 25% 29.87 in 10.0 mi NNE 6.9 mph - N/A   Clear
7:53 PM 70.0 °F 30.9 °F 24% 29.87 in 10.0 mi North 4.6 mph - N/A   Clear
8:53 PM 66.0 °F 35.1 °F 32% 29.88 in 10.0 mi North 5.8 mph - N/A   Clear
9:53 PM 57.0 °F 39.0 °F 51% 29.91 in 10.0 mi North 6.9 mph - N/A   Clear
10:53 PM 54.0 °F 39.0 °F 57% 29.92 in 10.0 mi NNW 6.9 mph - N/A   Clear